| time (UTC) | temp C | wind direction | speed KPH | gust KPH | rain 1hr cm | rain 24hr cm | rain mn cm | humidity % | barometer mb |
| 20260506122726 | 5 | 201 | 0.0 | 1.6 | 0.00 | 0.00 | 0.00 | 75 | 1016.2 |
| 20260506122224 | 5 | 201 | 0.0 | 0.0 | 0.00 | 0.00 | 0.00 | 75 | 1015.9 |
| 20260506121722 | 6 | 201 | 0.0 | 0.0 | 0.00 | 0.00 | 0.00 | 75 | 1016.0 |
| 20260506121218 | 6 | 201 | 0.0 | 0.0 | 0.00 | 0.00 | 0.00 | 74 | 1015.8 |
| 20260506120716 | 6 | 201 | 0.0 | 0.0 | 0.00 | 0.00 | 0.00 | 74 | 1016.1 |
| 20260506120213 | 6 | 202 | 0.0 | 1.6 | 0.00 | 0.00 | 0.00 | 73 | 1016.0 |
| 20260506115711 | 6 | 201 | 0.0 | 0.0 | 0.00 | 0.00 | 0.00 | 71 | 1015.9 |
| 20260506115209 | 6 | 201 | 1.6 | 1.6 | 0.00 | 0.00 | 0.00 | 71 | 1015.8 |
| 20260506114706 | 6 | 207 | 1.6 | 3.2 | 0.00 | 0.00 | 0.00 | 67 | 1015.8 |
| 20260506114204 | 6 | 210 | 0.0 | 0.0 | 0.00 | 0.00 | 0.00 | 68 | 1015.8 |
| 20260506113703 | 6 | 210 | 0.0 | 0.0 | 0.00 | 0.00 | 0.00 | 67 | 1015.6 |
| 20260506113159 | 6 | 210 | 0.0 | 0.0 | 0.00 | 0.00 | 0.00 | 69 | 1015.6 |
| 20260506112655 | 6 | 210 | 0.0 | 1.6 | 0.00 | 0.00 | 0.00 | 70 | 1015.5 |
| 20260506112153 | 6 | 210 | 0.0 | 0.0 | 0.00 | 0.00 | 0.00 | 71 | 1015.6 |
| 20260506111651 | 6 | 210 | 0.0 | 0.0 | 0.00 | 0.00 | 0.00 | 69 | 1015.4 |
| 20260506111149 | 6 | 210 | 0.0 | 0.0 | 0.00 | 0.00 | 0.00 | 70 | 1015.6 |
| 20260506110646 | 6 | 210 | 0.0 | 1.6 | 0.00 | 0.00 | 0.00 | 73 | 1015.4 |
| 20260506110143 | 6 | 210 | 0.0 | 0.0 | 0.00 | 0.00 | 0.00 | 73 | 1015.6 |
| 20260506105639 | 6 | 210 | 0.0 | 0.0 | 0.00 | 0.00 | 0.00 | 73 | 1015.4 |
| 20260506105136 | 6 | 210 | 0.0 | 0.0 | 0.00 | 0.00 | 0.00 | 74 | 1015.3 |
| 20260506104634 | 6 | 210 | 0.0 | 0.0 | 0.00 | 0.00 | 0.00 | 72 | 1015.1 |
| 20260506104132 | 6 | 210 | 0.0 | 0.0 | 0.00 | 0.00 | 0.00 | 70 | 1015.1 |
| 20260506103629 | 6 | 210 | 1.6 | 1.6 | 0.00 | 0.00 | 0.00 | 71 | 1014.9 |
| 20260506103125 | 6 | 210 | 1.6 | 1.6 | 0.00 | 0.00 | 0.00 | 72 | 1015.1 |
| 20260506102624 | 6 | 209 | 0.0 | 0.0 | 0.00 | 0.00 | 0.00 | 73 | 1014.9 |
| 20260506102121 | 6 | 209 | 0.0 | 1.6 | 0.00 | 0.00 | 0.00 | 74 | 1015.2 |
| 20260506101617 | 6 | 209 | 0.0 | 0.0 | 0.00 | 0.00 | 0.00 | 74 | 1014.9 |
| 20260506101114 | 6 | 209 | 0.0 | 0.0 | 0.00 | 0.00 | 0.00 | 73 | 1014.7 |
| 20260506100613 | 6 | 209 | 0.0 | 0.0 | 0.00 | 0.00 | 0.00 | 72 | 1014.9 |
| 20260506100110 | 6 | 209 | 0.0 | 0.0 | 0.00 | 0.00 | 0.00 | 71 | 1014.8 |
| 20260506095609 | 6 | 209 | 0.0 | 0.0 | 0.00 | 0.00 | 0.00 | 69 | 1014.8 |
| 20260506095105 | 6 | 209 | 0.0 | 1.6 | 0.00 | 0.00 | 0.00 | 70 | 1014.7 |
| 20260506094603 | 6 | 209 | 0.0 | 0.0 | 0.00 | 0.00 | 0.00 | 69 | 1014.5 |
| 20260506094100 | 7 | 209 | 0.0 | 1.6 | 0.00 | 0.00 | 0.00 | 66 | 1014.6 |
| 20260506093559 | 7 | 209 | 0.0 | 1.6 | 0.00 | 0.00 | 0.00 | 66 | 1014.6 |
| 20260506093055 | 7 | 209 | 0.0 | 1.6 | 0.00 | 0.00 | 0.00 | 65 | 1014.6 |
| 20260506092553 | 8 | 210 | 0.0 | 1.6 | 0.00 | 0.00 | 0.00 | 63 | 1014.7 |
| 20260506092050 | 8 | 210 | 1.6 | 3.2 | 0.00 | 0.00 | 0.00 | 60 | 1014.7 |
| 20260506091548 | 9 | 222 | 1.6 | 1.6 | 0.00 | 0.00 | 0.00 | 59 | 1014.4 |
| 20260506091045 | 9 | 223 | 1.6 | 3.2 | 0.00 | 0.00 | 0.00 | 58 | 1014.6 |
| 20260506090543 | 9 | 218 | 0.0 | 3.2 | 0.00 | 0.00 | 0.00 | 59 | 1014.7 |
| 20260506090039 | 9 | 245 | 0.0 | 1.6 | 0.00 | 0.00 | 0.00 | 58 | 1014.7 |
| 20260506085536 | 10 | 272 | 0.0 | 1.6 | 0.00 | 0.00 | 0.00 | 57 | 1014.6 |
| 20260506085032 | 10 | 217 | 1.6 | 3.2 | 0.00 | 0.00 | 0.00 | 56 | 1014.6 |
| 20260506084530 | 10 | 269 | 3.2 | 4.8 | 0.00 | 0.00 | 0.00 | 56 | 1014.6 |
| 20260506084025 | 10 | 266 | 6.4 | 9.7 | 0.00 | 0.00 | 0.00 | 55 | 1014.7 |
| 20260506083523 | 10 | 257 | 6.4 | 6.4 | 0.00 | 0.00 | 0.00 | 55 | 1014.7 |
| 20260506083020 | 10 | 282 | 1.6 | 6.4 | 0.00 | 0.00 | 0.00 | 56 | 1014.7 |
| 20260506082517 | 10 | 270 | 6.4 | 9.7 | 0.00 | 0.00 | 0.00 | 57 | 1014.7 |
| 20260506082013 | 10 | 261 | 3.2 | 6.4 | 0.00 | 0.00 | 0.00 | 58 | 1014.6 |
| 20260506081511 | 10 | 262 | 3.2 | 4.8 | 0.00 | 0.00 | 0.00 | 59 | 1014.8 |
| 20260506081008 | 9 | 259 | 1.6 | 4.8 | 0.00 | 0.00 | 0.00 | 61 | 1014.7 |
| 20260506080506 | 9 | 247 | 1.6 | 3.2 | 0.00 | 0.00 | 0.00 | 63 | 1014.7 |
| 20260506073449 | 10 | 264 | 4.8 | 6.4 | 0.00 | 0.00 | 0.00 | 63 | 1014.6 |
| 20260506072946 | 10 | 262 | 3.2 | 12.9 | 0.00 | 0.00 | 0.00 | 64 | 1014.9 |
| 20260506072443 | 10 | 271 | 3.2 | 6.4 | 0.00 | 0.00 | 0.00 | 65 | 1014.8 |
| 20260506071941 | 10 | 265 | 3.2 | 4.8 | 0.00 | 0.00 | 0.00 | 66 | 1014.7 |
| 20260506071439 | 10 | 276 | 3.2 | 6.4 | 0.00 | 0.00 | 0.00 | 67 | 1014.8 |
| 20260506070935 | 10 | 257 | 4.8 | 4.8 | 0.00 | 0.00 | 0.00 | 67 | 1014.9 |
| 20260506070432 | 10 | 247 | 0.0 | 0.0 | 0.00 | 0.00 | 0.00 | 68 | 1014.7 |
| 20260506062410 | 10 | 237 | 0.0 | 0.0 | 0.00 | 0.00 | 0.00 | 75 | 1014.6 |
| 20260506061906 | 10 | 235 | 0.0 | 0.0 | 0.00 | 0.00 | 0.00 | 76 | 1014.6 |
| 20260506061402 | 10 | 235 | 0.0 | 0.0 | 0.00 | 0.00 | 0.00 | 74 | 1014.5 |
| 20260506060901 | 10 | 235 | 0.0 | 0.0 | 0.00 | 0.00 | 0.00 | 74 | 1014.6 |
| 20260506060358 | 10 | 235 | 0.0 | 0.0 | 0.00 | 0.00 | 0.00 | 74 | 1014.6 |
| 20260506051330 | 11 | 235 | 0.0 | 0.0 | 0.00 | 0.13 | 0.13 | 71 | 1014.1 |
| 20260506050828 | 11 | 235 | 0.0 | 0.0 | 0.00 | 0.13 | 0.13 | 71 | 1013.9 |
| 20260506050325 | 11 | 235 | 0.0 | 0.0 | 0.00 | 0.13 | 0.13 | 71 | 1014.2 |
| 20260506044815 | 11 | 226 | 0.0 | 0.0 | 0.00 | 0.13 | 0.13 | 69 | 1014.1 |
| 20260506044313 | 11 | 226 | 0.0 | 1.6 | 0.00 | 0.13 | 0.13 | 67 | 1014.5 |
| 20260506043810 | 11 | 226 | 0.0 | 1.6 | 0.00 | 0.13 | 0.13 | 66 | 1014.0 |
| 20260506043307 | 11 | 32 | 0.0 | 0.0 | 0.00 | 0.13 | 0.13 | 67 | 1014.1 |
| 20260506042806 | 11 | 33 | 0.0 | 0.0 | 0.00 | 0.13 | 0.13 | 69 | 1013.8 |
| 20260506042305 | 11 | 25 | 0.0 | 3.2 | 0.00 | 0.13 | 0.13 | 68 | 1013.8 |
| 20260506041803 | 11 | 19 | 0.0 | 1.6 | 0.00 | 0.13 | 0.13 | 69 | 1013.9 |
| 20260506041259 | 12 | 26 | 0.0 | 1.6 | 0.00 | 0.13 | 0.13 | 68 | 1013.9 |
| 20260506040757 | 12 | 78 | 0.0 | 1.6 | 0.00 | 0.13 | 0.13 | 68 | 1014.0 |
| 20260506040254 | 12 | 42 | 0.0 | 3.2 | 0.00 | 0.13 | 0.13 | 67 | 1013.8 |
| 20260506035750 | 12 | 42 | 0.0 | 1.6 | 0.00 | 0.13 | 0.13 | 65 | 1013.4 |
| 20260506035247 | 12 | 40 | 0.0 | 0.0 | 0.00 | 0.13 | 0.13 | 64 | 1013.7 |
| 20260506034744 | 12 | 79 | 1.6 | 1.6 | 0.00 | 0.13 | 0.13 | 62 | 1013.3 |
| 20260506034241 | 12 | 79 | 0.0 | 4.8 | 0.00 | 0.13 | 0.13 | 62 | 1013.3 |
| 20260506033738 | 12 | 61 | 0.0 | 1.6 | 0.00 | 0.13 | 0.13 | 62 | 1013.2 |
| 20260506033235 | 12 | 32 | 3.2 | 4.8 | 0.00 | 0.13 | 0.13 | 62 | 1012.9 |
| 20260506032732 | 13 | 79 | 1.6 | 1.6 | 0.00 | 0.13 | 0.13 | 61 | 1012.7 |
| 20260506032229 | 13 | 83 | 3.2 | 3.2 | 0.00 | 0.13 | 0.13 | 60 | 1012.6 |
| 20260506031726 | 13 | 335 | 1.6 | 1.6 | 0.00 | 0.13 | 0.13 | 63 | 1012.7 |
| 20260506031223 | 13 | 320 | 0.0 | 1.6 | 0.00 | 0.13 | 0.13 | 65 | 1012.6 |
| 20260506030722 | 13 | 281 | 0.0 | 6.4 | 0.00 | 0.13 | 0.13 | 66 | 1012.3 |
| 20260506030218 | 13 | 290 | 0.0 | 3.2 | 0.00 | 0.13 | 0.13 | 67 | 1012.2 |
| 20260506025715 | 13 | 341 | 0.0 | 0.0 | 0.00 | 0.13 | 0.13 | 65 | 1011.8 |
| 20260506025211 | 13 | 341 | 0.0 | 0.0 | 0.00 | 0.13 | 0.13 | 63 | 1011.8 |
| 20260506024709 | 13 | 341 | 0.0 | 0.0 | 0.00 | 0.13 | 0.13 | 63 | 1011.6 |
| 20260506024205 | 13 | 341 | 0.0 | 0.0 | 0.00 | 0.13 | 0.13 | 66 | 1011.5 |
| 20260506023701 | 13 | 341 | 0.0 | 1.6 | 0.00 | 0.13 | 0.13 | 64 | 1011.3 |
| 20260506023159 | 13 | 341 | 0.0 | 1.6 | 0.00 | 0.13 | 0.13 | 64 | 1011.5 |
| 20260506022656 | 13 | 341 | 1.6 | 1.6 | 0.00 | 0.13 | 0.13 | 64 | 1011.5 |
| 20260506022153 | 13 | 341 | 1.6 | 1.6 | 0.00 | 0.13 | 0.13 | 68 | 1011.1 |
| 20260506021651 | 13 | 341 | 1.6 | 1.6 | 0.00 | 0.13 | 0.13 | 67 | 1011.1 |
| 20260506021148 | 13 | 342 | 1.6 | 1.6 | 0.00 | 0.13 | 0.13 | 67 | 1010.8 |
| 20260506020645 | 13 | 342 | 0.0 | 0.0 | 0.00 | 0.13 | 0.13 | 64 | 1010.7 |
| 20260506020143 | 13 | 342 | 0.0 | 0.0 | 0.00 | 0.13 | 0.13 | 66 | 1010.7 |
| 20260506015640 | 13 | 342 | 0.0 | 0.0 | 0.00 | 0.13 | 0.13 | 64 | 1010.7 |
| 20260506015137 | 14 | 342 | 0.0 | 0.0 | 0.00 | 0.13 | 0.13 | 64 | 1010.7 |
| 20260506014635 | 14 | 342 | 0.0 | 0.0 | 0.00 | 0.13 | 0.13 | 61 | 1010.5 |
| 20260506014130 | 14 | 342 | 0.0 | 0.0 | 0.00 | 0.13 | 0.13 | 62 | 1010.2 |
| 20260506013629 | 15 | 342 | 0.0 | 0.0 | 0.00 | 0.13 | 0.13 | 60 | 1010.4 |
| 20260506013125 | 15 | 342 | 0.0 | 1.6 | 0.00 | 0.13 | 0.13 | 60 | 1010.2 |
| 20260506012621 | 15 | 338 | 0.0 | 0.0 | 0.00 | 0.13 | 0.13 | 61 | 1010.2 |
| 20260506012118 | 15 | 338 | 0.0 | 1.6 | 0.00 | 0.13 | 0.13 | 63 | 1010.2 |
| 20260506011616 | 15 | 338 | 0.0 | 0.0 | 0.18 | 0.13 | 0.13 | 63 | 1010.5 |
| 20260506011112 | 15 | 338 | 0.0 | 1.6 | 0.18 | 0.13 | 0.13 | 63 | 1010.2 |
| 20260506010611 | 15 | 338 | 1.6 | 3.2 | 0.00 | 0.10 | 0.10 | 59 | 1010.5 |
| 20260506010108 | 16 | 338 | 0.0 | 0.0 | 0.00 | 0.10 | 0.10 | 65 | 1010.4 |
| 20260506005605 | 16 | 338 | 0.0 | 0.0 | 0.00 | 0.10 | 0.10 | 64 | 1010.7 |
| 20260506005101 | 16 | 338 | 0.0 | 1.6 | 0.00 | 0.10 | 0.10 | 48 | 1010.3 |
| 20260506004558 | 16 | 338 | 1.6 | 1.6 | 0.00 | 0.10 | 0.10 | 47 | 1010.1 |
| 20260506004055 | 17 | 338 | 0.0 | 0.0 | 0.00 | 0.10 | 0.10 | 46 | 1010.1 |
| 20260506003551 | 17 | 338 | 0.0 | 0.0 | 0.00 | 0.10 | 0.10 | 47 | 1010.2 |
| 20260506003047 | 17 | 338 | 0.0 | 1.6 | 0.00 | 0.10 | 0.10 | 46 | 1010.0 |
| 20260506002543 | 17 | 338 | 0.0 | 1.6 | 0.00 | 0.10 | 0.10 | 45 | 1010.0 |
| 20260506002039 | 17 | 338 | 0.0 | 1.6 | 0.00 | 0.10 | 0.10 | 45 | 1009.8 |
| 20260506001536 | 18 | 337 | 0.0 | 1.6 | 0.00 | 0.10 | 0.10 | 42 | 1009.8 |
| 20260506001033 | 19 | 335 | 0.0 | 1.6 | 0.00 | 0.10 | 0.10 | 41 | 1010.0 |
| 20260506000530 | 19 | 335 | 0.0 | 3.2 | 0.00 | 0.10 | 0.10 | 40 | 1009.8 |
| 20260506000028 | 19 | 270 | 0.0 | 1.6 | 0.00 | 0.10 | 0.10 | 43 | 1009.7 |
| 20260505235526 | 19 | 250 | 1.6 | 4.8 | 0.00 | 0.10 | 0.10 | 42 | 1010.0 |
| 20260505235022 | 19 | 346 | 0.0 | 0.0 | 0.00 | 0.10 | 0.10 | 42 | 1010.1 |
| 20260505234519 | 19 | 346 | 0.0 | 3.2 | 0.00 | 0.10 | 0.10 | 42 | 1010.1 |
| 20260505234016 | 18 | 257 | 1.6 | 4.8 | 0.00 | 0.10 | 0.10 | 41 | 1010.3 |
| 20260505233514 | 18 | 346 | 0.0 | 1.6 | 0.00 | 0.10 | 0.10 | 45 | 1010.1 |
| 20260505233011 | 17 | 257 | 0.0 | 4.8 | 0.00 | 0.10 | 0.10 | 46 | 1010.4 |
| 20260505232509 | 18 | 273 | 4.8 | 6.4 | 0.00 | 0.10 | 0.10 | 44 | 1010.3 |
| 20260505232006 | 18 | 87 | 0.0 | 1.6 | 0.00 | 0.10 | 0.10 | 43 | 1010.3 |
| 20260505231503 | 18 | 88 | 1.6 | 3.2 | 0.00 | 0.10 | 0.10 | 44 | 1010.2 |
| 20260505231001 | 18 | 84 | 0.0 | 3.2 | 0.00 | 0.10 | 0.10 | 43 | 1010.3 |
| 20260505230458 | 18 | 107 | 0.0 | 1.6 | 0.00 | 0.10 | 0.10 | 46 | 1010.5 |
| 20260505225954 | 17 | 107 | 0.0 | 3.2 | 0.00 | 0.10 | 0.10 | 49 | 1010.4 |
| 20260505225452 | 18 | 135 | 1.6 | 3.2 | 0.00 | 0.10 | 0.10 | 47 | 1010.7 |
| 20260505224948 | 18 | 232 | 0.0 | 3.2 | 0.00 | 0.10 | 0.10 | 44 | 1010.7 |
| 20260505224445 | 17 | 288 | 0.0 | 6.4 | 0.00 | 0.10 | 0.10 | 47 | 1010.7 |
| 20260505223942 | 17 | 68 | 1.6 | 3.2 | 0.00 | 0.10 | 0.10 | 46 | 1010.3 |
| 20260505223439 | 17 | 232 | 1.6 | 3.2 | 0.00 | 0.10 | 0.10 | 46 | 1010.4 |
| 20260505222935 | 17 | 83 | 0.0 | 3.2 | 0.00 | 0.10 | 0.10 | 47 | 1010.7 |
| 20260505222432 | 18 | 128 | 0.0 | 1.6 | 0.00 | 0.10 | 0.10 | 49 | 1010.8 |
| 20260505221927 | 17 | 52 | 0.0 | 1.6 | 0.00 | 0.10 | 0.10 | 49 | 1011.0 |
| 20260505221425 | 17 | 89 | 1.6 | 3.2 | 0.00 | 0.10 | 0.10 | 50 | 1010.9 |
| 20260505220922 | 17 | 10 | 1.6 | 1.6 | 0.00 | 0.10 | 0.10 | 56 | 1010.9 |
| 20260505220419 | 17 | 312 | 3.2 | 4.8 | 0.00 | 0.10 | 0.10 | 56 | 1011.1 |
| 20260505215916 | 17 | 326 | 1.6 | 6.4 | 0.00 | 0.10 | 0.10 | 58 | 1011.1 |
| 20260505215415 | 16 | 252 | 3.2 | 4.8 | 0.00 | 0.10 | 0.10 | 61 | 1011.3 |
| 20260505214912 | 15 | 340 | 0.0 | 3.2 | 0.00 | 0.10 | 0.10 | 69 | 1011.6 |
| 20260505214409 | 15 | 83 | 3.2 | 3.2 | 0.00 | 0.10 | 0.10 | 66 | 1011.7 |
| 20260505213907 | 15 | 320 | 1.6 | 3.2 | 0.00 | 0.10 | 0.10 | 65 | 1011.5 |
| 20260505213404 | 16 | 85 | 1.6 | 4.8 | 0.00 | 0.10 | 0.10 | 66 | 1011.7 |
| 20260505212900 | 16 | 280 | 1.6 | 6.4 | 0.00 | 0.10 | 0.10 | 64 | 1011.7 |
| 20260505212357 | 17 | 254 | 1.6 | 4.8 | 0.00 | 0.10 | 0.10 | 57 | 1011.3 |
| 20260505211854 | 17 | 270 | 1.6 | 3.2 | 0.00 | 0.10 | 0.10 | 53 | 1011.0 |
| 20260505211351 | 17 | 67 | 0.0 | 1.6 | 0.00 | 0.10 | 0.10 | 52 | 1011.0 |
| 20260505210847 | 17 | 84 | 0.0 | 1.6 | 0.00 | 0.10 | 0.10 | 50 | 1010.9 |
| 20260505210345 | 17 | 46 | 0.0 | 4.8 | 0.00 | 0.10 | 0.10 | 50 | 1011.1 |
| 20260505205841 | 18 | 222 | 1.6 | 1.6 | 0.00 | 0.10 | 0.10 | 48 | 1011.3 |
| 20260505205340 | 18 | 62 | 0.0 | 1.6 | 0.00 | 0.10 | 0.10 | 50 | 1011.0 |
| 20260505204836 | 18 | 268 | 1.6 | 3.2 | 0.00 | 0.10 | 0.10 | 49 | 1011.3 |
| 20260505204334 | 18 | 81 | 1.6 | 3.2 | 0.00 | 0.10 | 0.10 | 49 | 1011.3 |
| 20260505203831 | 17 | 99 | 1.6 | 3.2 | 0.00 | 0.10 | 0.10 | 51 | 1011.6 |
| 20260505203327 | 17 | 334 | 3.2 | 3.2 | 0.00 | 0.10 | 0.10 | 52 | 1011.8 |
| 20260505202824 | 17 | 276 | 0.0 | 1.6 | 0.00 | 0.10 | 0.10 | 54 | 1012.2 |
| 20260505202320 | 18 | 261 | 4.8 | 4.8 | 0.00 | 0.10 | 0.10 | 50 | 1012.0 |
| 20260505201817 | 19 | 257 | 6.4 | 12.9 | 0.00 | 0.10 | 0.10 | 46 | 1012.2 |
| 20260505201314 | 19 | 272 | 0.0 | 1.6 | 0.00 | 0.10 | 0.10 | 46 | 1012.0 |
| 20260505200813 | 19 | 276 | 4.8 | 6.4 | 0.00 | 0.10 | 0.10 | 47 | 1011.9 |
| 20260505200309 | 18 | 213 | 0.0 | 1.6 | 0.00 | 0.10 | 0.10 | 51 | 1011.6 |
| 20260505195804 | 18 | 239 | 0.0 | 1.6 | 0.00 | 0.10 | 0.10 | 50 | 1011.9 |
| 20260505195305 | 18 | 269 | 1.6 | 1.6 | 0.00 | 0.10 | 0.10 | 48 | 1011.9 |
| 20260505194759 | 18 | 262 | 0.0 | 3.2 | 0.00 | 0.10 | 0.10 | 51 | 1011.8 |
| 20260505194256 | 17 | 161 | 0.0 | 0.0 | 0.00 | 0.10 | 0.10 | 53 | 1011.6 |
| 20260505193756 | 18 | 78 | 1.6 | 1.6 | 0.00 | 0.10 | 0.10 | 50 | 1011.8 |
| 20260505193255 | 18 | 357 | 0.0 | 3.2 | 0.00 | 0.10 | 0.10 | 53 | 1011.9 |
| 20260505192753 | 18 | 81 | 1.6 | 3.2 | 0.00 | 0.10 | 0.10 | 55 | 1011.9 |
| 20260505192250 | 17 | 292 | 1.6 | 3.2 | 0.00 | 0.10 | 0.10 | 59 | 1012.0 |
| 20260505191748 | 17 | 121 | 1.6 | 3.2 | 0.00 | 0.10 | 0.10 | 62 | 1012.5 |
| 20260505191246 | 17 | 105 | 1.6 | 1.6 | 0.00 | 0.10 | 0.10 | 65 | 1012.6 |
| 20260505190742 | 16 | 286 | 3.2 | 4.8 | 0.00 | 0.10 | 0.10 | 70 | 1012.5 |
| 20260505190237 | 15 | 276 | 1.6 | 4.8 | 0.00 | 0.10 | 0.10 | 79 | 1012.5 |
| 20260505185734 | 14 | 252 | 6.4 | 9.7 | 0.13 | 0.10 | 0.10 | 78 | 1012.5 |
| 20260505185231 | 14 | 278 | 0.0 | 1.6 | 0.00 | 0.08 | 0.08 | 77 | 1012.6 |
| 20260505184726 | 15 | 269 | 3.2 | 4.8 | 0.00 | 0.08 | 0.08 | 74 | 1012.6 |
| 20260505184224 | 15 | 234 | 1.6 | 4.8 | 0.00 | 0.08 | 0.08 | 70 | 1013.1 |
| 20260505183720 | 16 | 305 | 1.6 | 1.6 | 0.00 | 0.08 | 0.08 | 67 | 1012.7 |
| 20260505183218 | 16 | 267 | 0.0 | 1.6 | 0.00 | 0.08 | 0.08 | 65 | 1012.5 |
| 20260505182714 | 16 | 273 | 1.6 | 3.2 | 0.00 | 0.08 | 0.08 | 64 | 1012.6 |
| 20260505182211 | 16 | 283 | 1.6 | 4.8 | 0.00 | 0.08 | 0.08 | 66 | 1012.7 |
| 20260505181708 | 16 | 101 | 0.0 | 3.2 | 0.00 | 0.08 | 0.08 | 65 | 1012.7 |
| 20260505181206 | 15 | 65 | 0.0 | 3.2 | 0.00 | 0.08 | 0.08 | 66 | 1012.6 |
| 20260505180701 | 15 | 260 | 0.0 | 6.4 | 0.00 | 0.08 | 0.08 | 72 | 1012.5 |
| 20260505180159 | 15 | 260 | 4.8 | 6.4 | 0.00 | 0.08 | 0.08 | 68 | 1013.0 |
| 20260505175654 | 15 | 170 | 1.6 | 1.6 | 0.00 | 0.08 | 0.08 | 65 | 1012.9 |
| 20260505175151 | 15 | 135 | 0.0 | 1.6 | 0.00 | 0.08 | 0.08 | 65 | 1012.7 |
| 20260505174648 | 16 | 110 | 0.0 | 1.6 | 0.00 | 0.08 | 0.08 | 61 | 1012.9 |
| 20260505174144 | 16 | 107 | 0.0 | 1.6 | 0.00 | 0.08 | 0.08 | 56 | 1013.1 |
| 20260505173641 | 16 | 111 | 3.2 | 3.2 | 0.00 | 0.08 | 0.08 | 59 | 1012.7 |
| 20260505173138 | 15 | 120 | 0.0 | 1.6 | 0.00 | 0.08 | 0.08 | 64 | 1012.9 |
| 20260505172635 | 15 | 127 | 1.6 | 1.6 | 0.00 | 0.08 | 0.08 | 67 | 1012.9 |
| 20260505172132 | 14 | 108 | 3.2 | 3.2 | 0.00 | 0.08 | 0.08 | 68 | 1012.7 |
| 20260505171626 | 13 | 110 | 0.0 | 1.6 | 0.00 | 0.08 | 0.08 | 74 | 1013.2 |
| 20260505171124 | 12 | 145 | 0.0 | 1.6 | 0.00 | 0.08 | 0.08 | 76 | 1013.0 |
| 20260505170621 | 12 | 145 | 0.0 | 1.6 | 0.00 | 0.08 | 0.08 | 77 | 1013.4 |
| 20260505170117 | 12 | 145 | 0.0 | 1.6 | 0.00 | 0.08 | 0.08 | 75 | 1013.1 |
| 20260505165612 | 12 | 148 | 0.0 | 0.0 | 0.18 | 0.08 | 0.08 | 77 | 1013.1 |
| 20260505165108 | 12 | 157 | 0.0 | 3.2 | 0.18 | 0.08 | 0.08 | 79 | 1013.2 |
| 20260505164604 | 12 | 119 | 0.0 | 0.0 | 0.00 | 0.05 | 0.05 | 79 | 1013.1 |
| 20260505164102 | 11 | 118 | 1.6 | 3.2 | 0.00 | 0.05 | 0.05 | 79 | 1013.3 |
| 20260505163600 | 11 | 119 | 0.0 | 3.2 | 0.00 | 0.05 | 0.05 | 78 | 1013.4 |
| 20260505163057 | 11 | 103 | 0.0 | 1.6 | 0.00 | 0.05 | 0.05 | 80 | 1013.6 |
| 20260505162555 | 11 | 107 | 1.6 | 1.6 | 0.00 | 0.05 | 0.05 | 81 | 1013.0 |
| 20260505162052 | 11 | 32 | 0.0 | 0.0 | 0.00 | 0.05 | 0.05 | 84 | 1013.1 |
| 20260505161549 | 11 | 18 | 0.0 | 3.2 | 0.13 | 0.05 | 0.05 | 83 | 1013.2 |
| 20260505161047 | 11 | 324 | 0.0 | 3.2 | 0.13 | 0.05 | 0.05 | 83 | 1013.2 |
| 20260505160544 | 11 | 27 | 0.0 | 1.6 | 0.00 | 0.03 | 0.03 | 82 | 1013.3 |
| 20260505153021 | 13 | 86 | 0.0 | 6.4 | 0.00 | 0.00 | 0.00 | 61 | 1013.1 |
| 20260505152518 | 14 | 37 | 1.6 | 1.6 | 0.00 | 0.00 | 0.00 | 58 | 1012.7 |
| 20260505152013 | 15 | 9 | 0.0 | 1.6 | 0.00 | 0.00 | 0.00 | 52 | 1012.9 |
| 20260505151509 | 15 | 12 | 0.0 | 3.2 | 0.00 | 0.00 | 0.00 | 49 | 1013.1 |
| 20260505151006 | 15 | 272 | 1.6 | 1.6 | 0.00 | 0.00 | 0.00 | 47 | 1013.0 |
| 20260505150503 | 15 | 282 | 0.0 | 0.0 | 0.00 | 0.00 | 0.00 | 48 | 1012.9 |
| 20260505140432 | 15 | 237 | 1.6 | 1.6 | 0.00 | 0.00 | 0.00 | 47 | 1013.2 |
| 20260505124846 | 15 | 268 | 1.6 | 4.8 | 0.00 | 0.00 | 0.00 | 40 | 1012.5 |
| 20260505124343 | 15 | 273 | 3.2 | 4.8 | 0.00 | 0.00 | 0.00 | 40 | 1012.3 |
| 20260505123839 | 15 | 236 | 1.6 | 3.2 | 0.00 | 0.00 | 0.00 | 40 | 1012.5 |
| 20260505123336 | 15 | 264 | 1.6 | 3.2 | 0.00 | 0.00 | 0.00 | 40 | 1012.4 |